Date,TemperatureHighF,TemperatureAvgF,TemperatureLowF,DewpointHighF,DewpointAvgF,DewpointLowF,HumidityHigh,HumidityAvg,HumidityLow,PressureMaxIn,PressureMinIn,WindSpeedMaxMPH,WindSpeedAvgMPH,GustSpeedMaxMPH,PrecipitationSumIn
2013-1-1,40,37,28,32,26,16,75,64,53,29.98,29.80,15,2,15,0.00
2013-1-2,32,28,23,20,17,12,68,61,57,30.15,29.97,16,2,16,0.00
2013-1-3,31,27,21,21,18,15,78,69,56,30.19,30.03,10,1,10,0.00
2013-1-4,40,34,30,26,24,20,75,66,54,30.06,29.91,12,1,12,0.00
2013-1-5,44,35,27,29,25,22,87,67,51,30.25,29.96,15,1,15,0.00
2013-1-6,46,38,29,35,31,25,91,75,63,30.21,29.95,6,0,7,0.00
2013-1-7,45,36,27,34,28,22,86,73,49,30.39,30.02,11,1,11,0.00
2013-1-8,51,40,28,37,32,24,90,75,53,30.42,30.32,10,1,10,0.00
2013-1-9,49,40,27,42,34,25,96,79,61,30.37,30.08,12,1,12,0.00
2013-1-10,48,42,35,35,30,27,74,61,46,30.53,30.19,13,2,13,0.00
2013-1-11,45,38,29,44,33,25,96,85,71,30.52,30.15,5,0,5,0.30
2013-1-12,48,43,41,47,42,40,98,98,96,30.17,30.05,5,0,9,0.05
2013-1-13,49,45,41,49,44,40,98,97,94,30.17,30.01,6,0,6,0.00
2013-1-14,56,49,37,54,45,33,99,88,65,30.28,29.91,8,1,9,0.03
2013-1-15,39,37,35,33,31,28,93,79,68,30.33,30.20,9,1,9,0.10
2013-1-16,37,35,34,36,34,30,97,95,78,30.22,29.77,7,0,7,0.65
2013-1-17,44,39,34,36,32,24,96,78,61,30.09,29.89,11,1,11,0.00
2013-1-18,34,27,23,25,14,8,69,57,41,30.49,30.00,13,2,13,0.00
2013-1-19,52,40,24,37,29,14,76,65,48,30.42,29.92,14,2,14,0.00
2013-1-20,55,44,31,35,29,15,74,57,37,30.01,29.66,16,2,17,0.00
2013-1-21,33,29,25,25,17,10,86,60,45,30.10,29.80,13,1,13,0.00
2013-1-22,29,22,14,21,6,-4,74,51,39,30.16,29.79,21,4,21,0.00
2013-1-23,21,16,13,2,0,-4,58,48,40,30.23,30.14,19,3,19,0.00
2013-1-24,23,18,11,6,3,-1,73,53,37,30.34,30.12,19,2,19,0.00
2013-1-25,24,20,15,18,10,5,88,66,51,30.39,30.04,9,1,9,0.01
2013-1-26,27,22,17,18,11,5,88,65,48,30.34,30.02,14,2,14,0.01
2013-1-27,33,24,18,16,12,8,74,60,36,30.50,30.34,11,1,11,0.00
2013-1-28,35,29,19,34,25,13,95,86,63,30.48,29.99,8,0,8,0.17
2013-1-29,42,38,35,38,36,33,96,93,85,30.16,29.98,5,0,5,0.02
2013-1-30,58,51,38,56,50,38,98,97,92,30.10,29.42,16,2,16,0.00
2013-1-31,58,46,30,57,35,14,97,67,40,29.75,29.06,23,4,23,0.39
2013-2-1,32,29,25,17,12,5,58,50,37,30.20,29.74,21,3,21,0.00
2013-2-2,31,26,21,22,13,8,88,58,38,30.29,30.06,20,2,20,0.00
2013-2-3,30,27,24,22,20,15,90,76,55,30.06,29.76,7,1,7,0.00
2013-2-4,34,28,24,23,15,12,82,59,44,29.97,29.78,18,2,18,0.00
2013-2-5,31,29,27,28,25,14,91,84,56,29.98,29.90,7,0,7,0.01
2013-2-6,40,33,29,30,24,12,93,72,47,30.35,29.91,14,2,14,0.00
2013-2-7,31,28,25,24,13,6,75,54,39,30.51,30.34,10,1,10,0.00
2013-2-8,35,32,26,32,29,24,97,90,73,30.35,29.56,16,2,16,1.62
2013-2-9,29,25,20,25,20,11,96,83,66,30.30,29.67,17,3,17,0.21
2013-2-10,35,22,9,24,15,5,92,74,37,30.47,30.30,11,0,13,0.02
2013-2-11,46,37,22,45,36,20,98,96,92,30.34,29.65,5,0,11,0.43
2013-2-12,44,39,34,38,32,27,98,77,60,29.95,29.68,13,1,13,0.00
2013-2-13,42,35,26,31,26,23,92,72,54,29.93,29.68,5,0,5,0.00
2013-2-14,43,36,30,35,29,24,94,78,49,30.00,29.69,7,1,7,0.00
2013-2-15,49,40,34,39,36,32,94,85,67,30.02,29.91,7,0,7,0.00
2013-2-16,39,35,29,36,29,22,94,78,61,29.95,29.68,11,2,11,0.00
2013-2-17,33,26,18,25,12,5,88,56,38,29.92,29.59,26,5,26,0.00
2013-2-18,33,25,18,16,11,6,63,56,44,30.22,29.92,23,4,26,0.00
2013-2-19,47,42,30,44,37,16,96,84,57,30.22,29.65,11,1,11,0.28
2013-2-20,38,32,26,34,20,13,83,62,47,29.94,29.67,24,4,24,0.00
2013-2-21,35,28,24,20,16,14,70,61,51,30.27,29.92,22,4,22,0.00
2013-2-22,36,29,26,28,22,18,79,74,66,30.39,30.25,11,2,12,0.00
2013-2-23,41,38,35,40,36,30,97,94,81,30.28,29.79,8,2,9,0.23
2013-2-24,43,37,32,38,34,30,97,90,77,29.93,29.71,10,2,10,0.01
2013-2-25,46,37,30,33,29,26,94,73,51,30.23,29.93,6,1,7,0.00
2013-2-26,42,37,33,35,32,30,94,82,67,30.31,29.93,11,1,11,0.10
2013-2-27,48,43,36,47,41,35,97,95,86,29.94,29.49,15,2,15,1.42
2013-2-28,47,42,38,42,38,35,96,88,74,29.62,29.52,7,0,7,0.07
2013-3-1,45,39,35,36,33,30,94,80,61,29.75,29.57,9,1,9,0.00
2013-3-2,39,36,33,31,28,26,81,72,63,29.75,29.66,11,2,11,0.00
2013-3-3,37,33,30,27,24,22,78,70,57,29.71,29.63,13,3,14,0.00
2013-3-4,42,34,29,28,24,20,71,65,55,29.86,29.70,17,4,17,0.00
2013-3-5,48,38,31,32,27,23,77,65,48,30.02,29.86,10,1,10,0.00
2013-3-6,42,38,36,37,34,31,90,83,75,30.00,29.84,21,4,21,0.01
2013-3-7,38,34,33,33,32,30,96,89,77,30.03,29.88,22,4,22,0.31
2013-3-8,38,34,31,34,32,30,96,93,71,30.14,29.95,12,1,12,0.78
2013-3-9,52,39,30,33,28,26,93,68,36,30.33,30.14,11,1,11,0.00
2013-3-10,46,35,25,37,31,23,96,85,66,30.40,30.30,7,1,7,0.00
2013-3-11,54,45,37,47,41,34,94,86,70,30.33,30.10,7,0,7,0.00
2013-3-12,53,52,48,52,49,47,96,91,83,30.11,29.80,11,1,11,0.39
2013-3-13,51,44,34,41,32,26,93,66,45,29.87,29.77,10,2,11,0.00
2013-3-14,38,34,29,32,19,12,79,55,38,29.92,29.83,18,4,19,0.00
2013-3-15,43,37,30,32,21,12,73,53,39,29.95,29.71,18,2,18,0.00
2013-3-16,39,34,31,31,27,22,93,75,54,29.89,29.76,10,1,10,0.02
2013-3-17,37,33,28,31,22,12,92,65,43,30.30,29.89,10,1,10,0.00
2013-3-18,35,31,28,32,19,12,94,61,43,30.41,30.04,15,1,15,0.33
2013-3-19,40,36,33,38,34,31,96,94,89,30.04,29.65,13,2,13,0.53
2013-3-20,44,36,31,33,25,22,92,66,46,29.86,29.78,15,2,16,0.00
2013-3-21,36,32,28,30,27,21,94,84,68,29.83,29.63,8,1,8,0.05
2013-3-22,42,34,29,27,23,18,75,64,47,29.85,29.69,15,3,16,0.00
2013-3-23,46,39,33,29,26,23,70,59,45,29.86,29.76,17,3,18,0.00
2013-3-24,45,41,31,29,26,22,77,57,45,29.93,29.70,10,1,11,0.00
2013-3-25,41,38,34,34,32,29,89,78,70,29.73,29.43,16,2,16,0.00
2013-3-26,52,41,34,34,31,29,85,68,43,29.84,29.55,10,1,10,0.00
2013-3-27,54,41,31,33,30,27,86,65,39,29.93,29.83,12,1,12,0.00
2013-3-28,49,42,36,39,34,31,84,73,59,30.08,29.93,10,1,10,0.00
2013-3-29,57,46,38,35,33,29,81,62,37,30.12,30.02,13,2,13,0.00
2013-3-30,41,38,36,34,33,31,87,80,72,30.14,30.10,6,0,6,0.00
2013-3-31,55,48,31,45,39,29,96,74,44,30.13,29.64,9,1,10,0.09
2013-4-1,61,47,38,50,41,18,97,80,45,29.88,29.60,16,1,16,0.08
2013-4-2,42,36,33,21,19,14,60,51,35,29.99,29.88,18,3,18,0.00
2013-4-3,46,40,33,24,19,15,55,42,34,30.27,30.05,17,4,19,0.00
2013-4-4,51,39,31,33,24,16,77,56,38,30.38,30.09,10,1,14,0.00
2013-4-5,61,48,41,38,31,22,87,57,24,30.09,29.68,12,2,13,0.00
2013-4-6,50,41,35,31,20,9,75,45,20,30.32,29.95,15,2,16,0.00
2013-4-7,54,45,34,45,37,30,89,75,59,30.31,30.01,16,1,16,0.00
2013-4-8,71,55,42,48,44,40,95,71,35,30.08,29.98,8,1,8,0.00
2013-4-9,79,61,49,56,48,40,94,67,29,30.02,29.89,12,1,13,0.00
2013-4-10,70,57,48,55,49,44,96,76,55,30.03,29.79,15,1,15,0.28
2013-4-11,61,52,46,53,47,38,98,82,62,30.07,29.77,9,1,9,0.05
2013-4-12,47,43,40,41,38,34,96,85,64,30.06,29.71,17,2,17,0.57
2013-4-13,57,46,38,41,38,35,96,76,49,29.97,29.72,11,1,11,0.07
2013-4-14,55,49,46,43,41,34,87,74,51,30.05,29.95,14,1,14,0.00
2013-4-15,58,50,37,39,35,30,86,57,42,30.39,30.22,7,0,7,0.00
2013-4-16,61,54,41,53,49,38,93,82,69,30.38,30.13,10,1,10,0.00
2013-4-17,68,58,49,53,43,33,90,61,30,30.29,30.10,9,1,9,0.00
2013-4-18,61,52,42,54,44,36,94,74,42,30.36,30.11,13,1,14,0.00
2013-4-19,69,60,56,64,59,54,98,94,81,30.11,29.67,16,2,16,0.00
2013-4-20,61,54,46,60,40,29,98,61,41,30.26,29.67,13,2,13,0.26
2013-4-21,53,44,37,33,27,21,69,52,31,30.63,30.25,12,2,13,0.00
2013-4-22,53,44,32,38,34,30,93,70,46,30.67,30.50,14,2,14,0.00
2013-4-23,47,44,40,42,39,34,91,83,71,30.50,30.08,12,2,12,0.00
2013-4-24,65,51,43,52,45,40,96,82,57,30.09,29.86,11,2,11,0.00
2013-4-25,62,53,47,51,41,28,93,67,29,30.17,29.86,13,2,13,0.01
2013-4-26,66,57,38,44,36,30,93,48,29,30.40,30.26,7,1,7,0.00
2013-4-27,67,48,38,44,37,32,87,67,29,30.42,30.29,7,0,7,0.00
2013-4-28,67,54,41,47,41,30,97,66,32,30.32,30.22,7,0,7,0.00
2013-4-29,61,55,52,48,45,36,83,69,46,30.26,30.20,8,0,8,0.00
2013-4-30,66,56,44,49,37,26,86,53,25,30.33,30.21,9,0,9,0.00
2013-5-1,67,52,38,49,42,32,94,69,46,30.48,30.32,10,1,10,0.00
2013-5-2,69,56,41,49,44,40,94,65,47,30.47,30.32,8,0,8,0.00
2013-5-3,63,53,49,46,41,38,75,64,45,30.46,30.39,11,1,11,0.00
2013-5-4,66,51,41,49,43,38,97,73,47,30.37,30.25,4,0,9,0.01
2013-5-5,62,49,40,48,42,37,95,78,53,30.30,30.22,9,1,9,0.02
2013-5-6,65,56,42,53,48,41,95,75,60,30.27,30.15,8,1,8,0.00
2013-5-7,73,58,44,60,53,42,97,85,65,30.17,30.09,7,1,7,0.00
2013-5-8,67,59,54,64,58,53,97,94,88,30.11,29.99,14,0,14,0.27
2013-5-9,63,58,52,60,56,52,98,95,87,30.02,29.86,6,0,6,0.57
2013-5-10,79,62,50,62,55,49,99,81,48,29.99,29.90,6,0,7,0.01
2013-5-11,68,62,58,64,59,56,98,93,83,29.90,29.69,9,1,11,0.62
2013-5-12,70,60,52,60,52,33,99,77,35,29.90,29.63,13,1,13,0.03
2013-5-13,59,51,44,39,34,29,73,54,39,30.07,29.90,13,1,13,0.01
2013-5-14,59,50,42,43,36,29,80,60,34,30.10,30.01,8,1,8,0.00
2013-5-15,64,56,47,57,49,42,91,79,51,30.07,29.68,9,1,9,0.01
2013-5-16,80,62,51,59,54,46,98,76,35,29.80,29.69,6,0,8,0.02
2013-5-17,69,58,50,53,47,43,94,67,42,30.07,29.80,8,1,9,0.00
2013-5-18,70,57,45,56,52,44,96,85,48,30.31,30.20,4,0,7,0.04
2013-5-19,58,57,55,57,55,51,98,94,81,30.34,30.17,7,0,7,0.21
2013-5-20,77,64,58,69,62,57,99,94,74,30.17,29.96,5,0,7,0.07
2013-5-21,86,72,62,74,67,61,98,86,65,29.97,29.84,7,0,7,0.00
2013-5-22,76,65,55,70,62,54,98,91,76,29.94,29.85,8,1,8,0.02
2013-5-23,76,68,64,70,65,62,97,92,80,29.91,29.77,14,1,16,0.15
2013-5-24,68,58,47,66,57,45,99,95,87,29.88,29.67,14,1,14,0.66
2013-5-25,50,47,45,47,44,42,97,92,80,29.93,29.83,18,1,18,1.07
2013-5-26,65,54,44,49,44,41,94,71,48,30.18,29.89,16,1,16,0.00
2013-5-27,73,55,43,50,44,40,95,71,33,30.22,30.11,6,0,8,0.01
2013-5-28,72,56,47,57,52,46,98,86,49,30.21,30.13,5,0,5,0.44
2013-5-29,78,66,56,71,62,56,98,89,72,30.14,29.99,7,0,7,0.01
2013-5-30,90,76,65,74,66,63,95,73,48,30.11,30.04,5,0,5,0.01
2013-5-31,92,76,64,74,67,63,96,73,45,30.11,29.98,6,0,6,0.00
2013-6-1,86,75,67,74,68,64,91,78,63,30.01,29.91,7,0,7,0.01
2013-6-2,82,71,65,73,66,63,95,84,69,29.92,29.77,8,1,8,0.00
2013-6-3,74,69,66,71,67,59,98,93,78,29.85,29.78,6,0,6,0.46
2013-6-4,72,62,54,60,50,46,93,68,45,30.09,29.84,8,0,8,0.00
2013-6-5,73,61,49,57,51,46,95,73,45,30.20,30.08,8,1,8,0.01
2013-6-6,71,60,55,61,57,52,98,89,52,30.15,30.02,4,0,7,0.02
2013-6-7,62,60,58,61,59,56,98,97,92,30.02,29.64,11,1,12,2.59
2013-6-8,76,65,55,68,61,54,98,90,71,30.03,29.54,10,1,10,1.34
2013-6-9,78,68,56,66,60,56,99,80,56,30.16,30.03,5,0,5,0.00
2013-6-10,73,64,61,68,63,60,99,95,79,30.16,29.85,8,0,8,1.08
2013-6-11,80,71,63,72,67,59,99,89,69,29.86,29.58,6,0,7,0.71
2013-6-12,74,66,57,60,58,55,92,76,60,29.84,29.66,10,1,13,0.01
2013-6-13,64,60,54,60,58,53,97,92,85,29.82,29.49,16,1,16,0.23
2013-6-14,70,59,53,60,55,52,97,87,66,29.85,29.49,15,2,15,0.44
2013-6-15,79,70,58,61,57,51,96,68,41,29.98,29.85,6,0,6,0.02
2013-6-16,79,68,55,68,62,54,98,81,49,29.97,29.75,5,0,6,0.02
2013-6-17,84,71,63,71,66,62,97,85,59,29.93,29.82,5,0,5,0.09
2013-6-18,78,67,60,73,66,60,99,94,78,29.89,29.81,9,0,9,0.36
2013-6-19,75,65,58,62,56,49,98,74,42,30.16,29.86,9,1,9,0.02
2013-6-20,78,66,53,67,57,52,98,75,51,30.26,30.16,8,0,8,0.01
2013-6-21,81,69,59,68,58,55,93,70,51,30.29,30.23,7,0,7,0.01
2013-6-22,82,70,60,70,61,57,94,75,49,30.26,30.13,7,0,7,0.01
2013-6-23,85,74,64,75,67,60,95,79,61,30.18,30.06,7,0,8,0.01
2013-6-24,90,78,69,78,72,65,98,81,54,30.06,29.92,6,0,9,0.02
2013-6-25,90,78,66,79,70,64,95,77,57,29.98,29.77,6,0,6,0.00
2013-6-26,84,78,73,75,70,68,88,79,65,29.82,29.74,5,0,6,0.01
2013-6-27,82,74,70,75,71,69,97,90,77,29.81,29.59,8,0,8,0.08
2013-6-28,84,76,72,76,72,70,97,87,72,29.59,29.48,7,0,8,0.01
2013-6-29,82,74,68,75,70,67,98,89,73,29.70,29.48,7,0,7,0.02
2013-6-30,81,73,69,77,72,68,98,94,82,29.92,29.70,8,0,8,0.03
2013-7-1,81,74,72,77,73,71,99,96,86,30.06,29.90,8,0,8,0.63
2013-7-2,81,75,72,77,73,71,97,93,82,30.18,30.06,7,0,7,0.02
2013-7-3,86,77,71,78,73,69,96,89,74,30.24,30.17,6,0,6,0.02
2013-7-4,88,81,72,81,75,72,98,82,72,30.24,30.15,7,0,7,0.06
2013-7-5,90,80,73,81,74,71,96,84,68,30.20,30.07,5,0,5,0.00
2013-7-6,90,82,74,79,74,72,94,79,59,30.12,30.00,4,0,7,0.01
2013-7-7,91,82,74,80,75,72,94,79,56,30.04,29.91,5,0,5,0.01
2013-7-8,88,79,72,77,70,66,88,76,56,30.02,29.94,7,0,7,0.01
2013-7-9,85,78,71,77,72,67,91,82,69,30.06,29.98,4,0,4,0.00
2013-7-10,86,80,74,79,75,71,96,86,73,30.01,29.79,8,0,8,0.14
2013-7-11,80,76,75,77,74,73,98,94,84,29.85,29.79,3,0,3,0.19
2013-7-12,76,72,68,71,69,66,97,90,82,30.11,29.90,8,1,8,0.40
2013-7-13,78,73,68,77,72,67,99,98,94,30.27,30.11,5,0,5,0.37
2013-7-14,89,79,72,80,75,72,100,88,64,30.31,30.21,3,0,5,0.03
2013-7-15,90,81,74,80,75,72,96,81,64,30.22,30.11,4,0,5,0.01
2013-7-16,89,82,72,77,73,71,97,75,57,30.17,30.10,4,0,4,0.00
2013-7-17,91,80,71,77,73,70,98,79,52,30.17,30.04,5,0,5,0.02
2013-7-18,93,84,75,81,76,71,92,77,54,30.05,29.93,4,0,4,0.01
2013-7-19,92,83,75,85,78,73,98,84,68,29.95,29.77,14,0,14,0.98
2013-7-20,90,82,77,81,75,68,94,79,61,29.83,29.69,5,0,7,0.01
2013-7-21,82,76,70,73,70,65,96,81,60,29.95,29.81,6,0,6,0.03
2013-7-22,80,74,70,77,72,69,98,95,85,29.95,29.80,6,0,6,0.03
2013-7-23,86,77,69,80,74,69,99,93,75,29.80,29.53,8,0,8,1.35
2013-7-24,81,74,69,76,70,60,99,88,70,29.92,29.59,7,0,7,0.00
2013-7-25,69,63,62,61,58,54,96,85,73,30.05,29.91,11,2,11,0.18
2013-7-26,74,67,61,68,64,60,97,91,72,30.04,29.95,7,0,8,0.24
2013-7-27,81,72,66,72,67,63,97,85,58,30.05,29.97,5,0,5,0.00
2013-7-28,72,66,64,70,66,64,99,98,95,30.00,29.94,1,0,1,0.02
2013-7-29,84,76,66,75,69,59,99,80,59,30.07,29.94,5,0,5,0.20
2013-7-30,78,69,60,66,62,59,97,78,55,30.15,30.07,6,0,6,0.00
2013-7-31,80,70,60,67,63,59,99,80,51,30.14,30.03,4,0,4,0.02
2013-8-1,76,70,66,70,67,64,99,92,77,30.04,29.82,4,0,5,0.20
2013-8-2,82,73,68,70,68,64,99,84,57,29.90,29.77,5,0,5,0.03
2013-8-3,77,70,67,72,66,61,95,86,73,29.90,29.82,5,0,5,0.05
2013-8-4,78,69,61,66,62,58,99,81,58,29.93,29.82,12,0,12,0.02
2013-8-5,73,66,60,59,55,50,87,70,49,30.04,29.93,8,0,8,0.01
2013-8-6,76,66,57,66,59,56,98,79,61,30.13,30.03,4,0,4,0.00
2013-8-7,77,71,58,70,65,57,97,81,69,30.15,30.08,5,0,5,0.02
2013-8-8,80,74,69,75,72,66,95,91,81,30.08,30.01,6,0,6,0.02
2013-8-9,81,76,74,78,74,71,98,96,86,30.02,29.79,13,0,13,0.70
2013-8-10,80,74,68,74,71,60,98,90,63,30.03,29.80,3,0,6,0.01
2013-8-11,77,69,57,65,59,54,94,73,50,30.11,30.02,6,0,6,0.03
2013-8-12,77,70,67,72,68,64,98,93,77,30.03,29.92,3,0,3,0.07
2013-8-13,73,70,66,72,69,66,99,97,87,29.93,29.69,5,0,5,0.42
2013-8-14,69,68,68,69,68,67,98,97,97,29.73,29.71,0,0,1,0.01
2013-8-15,65,65,65,60,59,59,82,81,80,30.12,30.12,3,0,3,0.01
2013-8-16,78,71,56,65,59,52,98,67,44,30.20,30.11,4,0,4,0.00
2013-8-17,79,71,57,65,60,54,98,71,43,30.27,30.20,6,0,6,0.01
2013-8-18,74,66,60,67,62,58,97,88,67,30.26,30.12,5,0,5,0.03
2013-8-19,75,68,58,68,63,57,96,85,71,30.12,30.01,4,0,4,0.02
2013-8-20,83,73,63,70,66,61,98,80,50,30.11,30.02,3,0,3,0.00
2013-8-21,85,74,64,71,67,61,99,80,47,30.16,30.04,4,0,4,0.02
2013-8-22,80,73,69,77,71,68,99,94,86,30.06,29.85,4,0,4,1.37
2013-8-23,78,72,64,70,65,60,98,82,57,30.09,29.85,8,0,8,0.00
2013-8-24,76,67,58,62,58,53,97,74,47,30.34,30.09,9,1,9,0.01
2013-8-25,79,67,55,65,58,54,99,76,43,30.38,30.21,5,0,5,0.02
2013-8-26,78,71,66,71,65,58,98,81,68,30.22,29.90,4,0,4,0.34
2013-8-27,81,73,69,74,70,68,99,92,74,29.90,29.79,8,0,8,0.36
2013-8-28,84,74,65,76,70,65,99,89,70,29.89,29.83,6,0,6,0.00
2013-8-29,66,66,66,64,64,63,94,93,91,30.03,30.01,0,0,1,0.02
2013-8-30,80,71,65,74,67,62,94,89,74,30.03,29.85,4,0,4,0.00
2013-8-31,82,75,70,76,72,69,96,89,78,29.86,29.79,6,0,6,0.01
2013-9-1,82,76,72,77,73,72,98,92,80,29.85,29.80,7,0,7,0.01
2013-9-2,77,75,71,76,74,70,99,96,92,29.81,29.69,3,0,3,0.03
2013-9-3,76,72,69,74,71,69,99,98,89,29.77,29.69,2,0,2,0.16
2013-9-4,78,72,65,73,61,56,91,70,49,29.97,29.75,5,0,5,0.01
2013-9-5,74,67,62,66,60,46,92,78,50,30.12,29.90,9,0,9,0.01
2013-9-6,68,60,52,53,49,45,90,69,48,30.24,30.11,9,1,9,0.00
2013-9-7,76,63,51,61,54,49,95,74,46,30.12,29.89,5,0,5,0.01
2013-9-8,78,69,62,68,59,48,91,72,46,30.07,29.79,12,1,12,0.01
2013-9-9,68,60,48,57,51,46,95,73,57,30.24,30.07,5,0,6,0.01
2013-9-10,80,74,62,74,70,57,96,89,80,30.16,30.05,8,0,8,0.05
2013-9-11,74,73,73,72,71,71,94,93,93,30.09,30.06,2,0,4,0.01
2013-9-12,84,77,69,76,73,68,97,86,74,29.99,29.69,9,0,9,0.17
2013-9-13,73,64,60,69,59,53,99,81,73,29.81,29.61,7,1,11,0.05
2013-9-14,66,60,54,56,52,49,85,76,61,30.10,29.81,9,0,9,0.01
2013-9-15,67,58,47,58,51,46,98,80,51,30.20,30.08,5,0,5,0.02
2013-9-16,64,60,57,61,56,44,95,86,63,30.23,30.03,10,0,10,0.01
2013-9-17,60,53,44,47,43,39,95,70,50,30.42,30.23,12,2,13,0.00
2013-9-18,68,54,43,54,47,42,98,80,50,30.34,30.18,5,0,5,0.01
2013-9-19,72,59,49,57,52,48,98,82,50,30.19,30.08,5,0,5,0.01
2013-9-20,77,66,51,65,59,50,99,79,55,30.09,30.00,4,0,4,0.00
2013-9-21,76,66,53,69,63,52,99,90,75,30.02,29.68,10,0,10,0.02
2013-9-22,71,64,55,68,56,44,98,79,58,29.89,29.64,13,1,13,0.94
2013-9-23,63,55,50,49,44,43,79,68,53,29.98,29.88,11,1,12,0.00
2013-9-24,67,57,48,54,50,43,96,77,56,30.03,29.85,9,0,9,0.00
2013-9-25,68,55,46,55,50,45,98,84,54,29.94,29.86,4,0,4,0.01
2013-9-26,66,58,50,58,54,49,98,87,64,30.09,29.92,6,0,6,0.01
2013-9-27,64,56,48,58,52,47,99,89,71,30.26,30.09,9,0,9,0.00
2013-9-28,70,60,51,59,55,50,98,84,58,30.32,30.23,7,0,7,0.00
2013-9-29,66,60,47,57,48,39,99,65,40,30.23,30.09,7,0,7,0.01
2013-9-30,68,61,46,58,55,46,99,83,58,30.08,29.97,5,0,5,0.00
2013-10-1,74,59,50,61,56,50,99,90,58,29.99,29.91,3,0,5,0.01
2013-10-2,78,64,55,66,60,54,99,89,62,29.99,29.90,6,0,6,0.00
2013-10-3,72,62,52,61,56,51,99,83,53,30.11,29.99,5,0,5,0.01
2013-10-4,82,69,60,71,64,58,98,87,66,30.06,29.96,5,0,5,0.00
2013-10-5,72,66,63,66,63,61,98,92,80,30.09,30.01,5,0,5,0.00
2013-10-6,66,64,63,66,64,62,99,98,95,30.11,30.04,3,0,3,0.02
2013-10-7,77,69,62,72,67,55,99,92,79,30.04,29.81,14,0,14,0.10
2013-10-8,65,60,56,56,49,45,81,68,50,30.31,29.95,11,1,11,0.01
2013-10-9,62,58,54,52,49,41,85,74,53,30.40,30.28,13,1,13,0.00
2013-10-10,64,60,55,59,56,50,92,86,82,30.29,30.08,9,1,9,0.02
2013-10-11,68,63,59,62,58,53,92,86,71,30.09,30.01,9,1,9,0.01
2013-10-12,69,62,59,58,52,44,85,70,46,30.29,30.07,12,1,12,0.00
2013-10-13,60,57,50,54,52,47,90,84,75,30.38,30.28,11,1,11,0.00
2013-10-14,62,53,46,53,48,44,96,85,65,30.37,30.25,7,0,7,0.00
2013-10-15,66,54,44,57,49,43,98,85,68,30.26,30.11,7,0,8,0.00
2013-10-16,65,59,48,60,56,47,98,91,80,30.11,29.91,6,0,6,0.00
2013-10-17,70,64,60,65,61,59,97,91,78,29.92,29.70,5,0,5,0.01
2013-10-18,66,62,54,63,53,47,96,73,54,29.96,29.65,15,1,15,0.02
2013-10-19,64,52,44,56,46,42,97,83,53,29.99,29.74,5,0,6,0.01
2013-10-20,62,57,47,57,45,40,94,66,49,30.05,29.71,8,1,14,0.01
2013-10-21,66,52,41,47,43,38,96,74,45,30.15,29.99,5,0,6,0.00
2013-10-22,70,55,45,54,48,43,97,78,53,29.99,29.73,8,0,9,0.00
2013-10-23,52,49,45,47,40,38,87,73,61,29.81,29.60,9,0,9,0.02
2013-10-24,54,48,44,40,36,31,81,63,47,29.97,29.71,10,1,10,0.00
2013-10-25,52,47,43,37,35,32,76,64,51,30.20,29.97,7,1,12,0.00
2013-10-26,55,47,38,39,36,32,87,66,45,30.20,29.90,9,0,9,0.01
2013-10-27,57,51,46,41,37,34,78,60,46,30.10,29.84,12,0,12,0.01
2013-10-28,60,50,38,41,38,34,88,63,44,30.31,30.10,9,0,9,0.00
2013-10-29,51,45,36,39,35,32,89,68,52,30.42,30.31,7,0,8,0.00
2013-10-30,59,48,36,52,44,33,94,84,71,30.35,30.18,3,0,3,0.00
2013-10-31,66,60,46,61,57,44,98,89,79,30.23,29.83,6,0,7,0.01
2013-11-1,66,63,60,63,61,57,96,91,76,29.83,29.55,12,1,14,0.09
2013-11-2,65,57,49,57,50,45,95,79,57,29.75,29.60,6,0,6,0.01
2013-11-3,55,47,38,46,37,22,87,70,54,30.43,29.75,13,1,14,0.01
2013-11-4,43,37,31,27,25,22,84,62,46,30.66,30.43,13,1,13,0.00
2013-11-5,55,44,31,41,36,26,91,75,56,30.67,30.50,5,0,5,0.00
2013-11-6,62,50,38,55,46,36,97,85,58,30.51,30.06,7,0,7,0.00
2013-11-7,64,56,44,61,53,32,97,89,60,30.06,29.73,12,1,12,0.23
2013-11-8,51,45,42,36,32,28,73,61,48,30.18,29.89,17,2,17,0.00
2013-11-9,48,44,38,38,32,29,74,63,50,30.27,30.01,9,1,12,0.00
2013-11-10,62,50,44,42,38,32,75,63,42,30.01,29.77,17,1,20,0.01
2013-11-11,53,48,44,36,33,30,61,55,45,30.17,29.95,15,1,15,0.00
2013-11-12,50,38,31,39,29,21,93,70,57,30.26,29.91,14,1,14,0.14
2013-11-13,38,33,29,23,20,16,70,58,44,30.34,30.25,12,1,12,0.00
2013-11-14,53,43,32,26,23,20,66,45,28,30.26,30.13,10,0,10,0.00
2013-11-15,58,46,35,42,34,26,84,63,40,30.24,30.15,4,0,4,0.00
2013-11-16,60,49,40,48,42,35,92,77,54,30.32,30.22,5,0,5,0.00
2013-11-17,62,58,40,61,57,38,98,97,92,30.27,29.80,7,0,7,0.05
2013-11-18,64,59,51,61,47,34,99,68,40,29.79,29.59,10,1,10,0.47
2013-11-19,51,45,35,34,29,22,64,55,48,30.33,29.74,18,3,18,0.00
2013-11-20,42,34,26,23,21,18,79,60,39,30.61,30.33,8,1,14,0.00
2013-11-21,52,38,25,41,31,20,94,77,56,30.62,30.38,6,0,7,0.00
2013-11-22,54,51,46,52,48,41,96,90,82,30.38,29.87,5,0,5,0.06
2013-11-23,53,43,31,50,32,15,91,64,45,30.00,29.86,23,3,23,0.01
2013-11-24,31,27,24,19,9,2,64,48,30,30.33,29.94,23,5,28,0.00
2013-11-25,34,29,23,20,16,10,65,57,44,30.47,30.33,12,1,12,0.00
2013-11-26,52,39,34,51,31,19,98,76,48,30.34,29.82,8,0,8,0.24
2013-11-27,62,50,36,62,48,27,98,94,71,29.82,29.28,19,3,19,1.78
2013-11-28,36,32,30,28,19,14,72,58,48,30.47,29.67,21,3,21,0.00
2013-11-29,39,33,30,26,21,17,72,61,52,30.72,30.46,9,1,9,0.00
2013-11-30,37,32,26,29,21,15,80,65,43,30.76,30.37,7,0,7,0.00
2013-12-1,47,41,34,43,39,29,96,91,80,30.37,30.00,5,0,5,0.10
2013-12-2,44,38,32,41,36,31,97,93,87,30.00,29.88,6,0,6,0.00
2013-12-3,49,39,32,40,35,30,97,88,67,30.00,29.86,7,0,7,0.00
2013-12-4,48,40,30,43,36,29,97,86,70,30.15,29.99,5,0,5,0.00
2013-12-5,60,54,44,58,53,43,98,95,88,30.14,29.94,4,0,4,0.01
2013-12-6,58,47,37,57,45,35,99,95,76,30.15,29.88,12,1,12,0.40
2013-12-7,40,36,32,36,31,21,95,80,62,30.50,30.06,10,2,10,0.22
2013-12-8,33,32,29,30,23,20,93,72,60,30.59,30.39,8,0,8,0.02
2013-12-9,43,38,32,42,36,30,97,96,93,30.39,29.92,9,1,9,0.11
2013-12-10,38,34,31,35,31,20,96,88,65,30.10,29.80,17,1,17,0.17
2013-12-11,31,30,29,20,19,18,66,64,62,30.18,30.10,15,2,17,0.00
2013-12-12,30,25,22,20,12,8,68,57,47,30.33,30.14,8,1,12,0.00
2013-12-13,25,24,23,12,10,9,59,56,54,30.14,30.11,13,1,13,0.00
2013-12-14,37,27,23,36,23,18,97,86,68,30.51,29.89,3,2,11,0.37
2013-12-15,42,36,33,41,30,24,97,81,69,29.84,29.44,9,2,21,1.16
2013-12-16,33,29,23,24,16,11,72,58,50,30.22,29.81,16,2,17,0.00
2013-12-17,34,26,21,32,22,13,95,86,68,30.23,29.91,9,1,9,0.25
2013-12-18,35,29,24,28,24,21,92,80,67,30.16,29.89,10,1,11,0.00
2013-12-19,47,37,28,34,28,22,82,68,49,30.17,30.01,8,0,8,0.00
2013-12-20,52,43,34,44,36,30,94,77,58,30.11,29.97,5,0,5,0.00
2013-12-21,60,51,46,53,48,44,96,89,74,30.01,29.90,7,0,7,0.00
2013-12-22,61,59,54,58,56,52,96,91,80,29.97,29.81,11,1,11,0.00
2013-12-23,58,53,40,57,52,36,98,95,85,30.13,29.86,11,1,12,0.34
2013-12-24,40,35,27,36,26,20,91,72,55,30.30,30.06,14,2,14,0.06
2013-12-25,26,24,20,20,13,10,76,64,53,30.52,30.29,12,2,13,0.00
2013-12-26,36,31,24,30,25,16,89,80,70,30.45,30.14,9,0,9,0.00
2013-12-27,41,34,30,28,24,21,86,68,51,30.35,30.25,13,1,13,0.00
2013-12-28,54,43,33,35,30,25,83,63,42,30.28,30.05,9,0,9,0.00
2013-12-29,48,43,40,47,38,31,97,83,65,30.07,29.35,12,1,12,1.33
2013-12-30,43,36,23,40,30,13,95,81,59,30.18,29.65,11,1,12,0.00
2013-12-31,32,26,20,23,16,12,74,66,51,30.26,30.05,16,1,18,0.00
2014-1-1,32,28,23,23,17,12,75,64,54,30.41,30.25,15,1,15,0.00
2014-1-2,32,27,17,26,24,15,93,88,71,30.27,29.66,14,3,14,0.15